[[{"header":{"parameterUnit":"m.s-1","parameterCategory":1,"la1":30.2991,"la2":30.254,"lo1":-89.0895,"lo2":-89.0444,"dy":0.0017,"dx":0.0017,"nx":28,"ny":28,"refTime":"2024-09-02T03:00:00:Z","depth":0,"parameterNumber":2,"parameterNumberName":"U-component_of_WINDS"},"data":[0,0,0,0,0,0,0,0,0,0,0,0,0,0,0,0,0,0,0,0,0,0,0,0,0,0,0,0,0,0,0,0,0,0,0,0,0,0,0,0,0,0,0,0,0,0,0,0,0,0,0,0,0,0,0,0,0,0,0.3742,0.3742,0,0.378,0.378,0.3781,0.3824,0.3824,0.3825,0.3826,0.3863,0.3864,0.3864,0,0,0,0,0,0,0,0,0,0,0,0,0,0.3706,0.3707,0.3742,0.3742,0.3743,0.378,0.378,0.3781,0.3824,0.3824,0.3825,0.3826,0.3863,0.3864,0.3864,0,0,0,0,0,0,0,0,0,0,0,0,0,0.3731,0.3707,0.3742,0.3769,0.3771,0.378,0.378,0.3781,0.3823,0.3824,0.3825,0.3826,0.3863,0.3864,0.3864,0.3849,0,0,0.3866,0.3866,0,0,0,0,0,0,0,0,0.3729,0.3732,0.3764,0.3767,0.377,0.3798,0.3782,0.3804,0.3823,0.3804,0.3826,0.3827,0.3841,0.3843,0.3848,0.3851,0.3852,0.3866,0.3867,0.3867,0.3867,0,0,0,0,0,0,0,0.3728,0.3731,0.3757,0.3765,0.3768,0.3779,0.3783,0.3786,0.3816,0.3805,0.3809,0.3813,0.3843,0.3848,0.3849,0.3853,0.3866,0.3867,0.3867,0.3867,0.3846,0.3845,0,0,0,0,0,0,0.3722,0.3729,0.3756,0.3758,0.3752,0.3779,0.3784,0.3788,0.3816,0.3822,0.3812,0.3814,0.3846,0.3849,0.3851,0.3835,0.3867,0.3867,0.3868,0.3847,0.3846,0.3845,0,0,0,0,0,0,0.3721,0.3724,0.3754,0.3744,0.3749,0.3778,0.3783,0.3788,0.3793,0.3821,0.3827,0.3811,0.3847,0.385,0.3849,0.3837,0.3868,0.3868,0.3848,0.3846,0.3845,0.3803,0,0,0,0,0,0,0.372,0.3723,0.3717,0.3744,0.3749,0.3751,0.3782,0.3788,0.3794,0.3798,0.3822,0.3827,0.3848,0.3848,0.385,0.3838,0.3869,0.3849,0.3847,0.3846,0.3805,0.38,0.3795,0,0,0,0,0,0.3718,0.3703,0.3717,0.372,0.3743,0.3751,0.3754,0.3778,0.3793,0.3788,0.3806,0.3826,0.3839,0.3848,0.385,0.3838,0.385,0.3848,0.3846,0.3807,0.3801,0.3796,0,0,0,0,0,0,0.3673,0.3707,0.3722,0.3716,0.373,0.3758,0.3751,0.3771,0.3781,0.3784,0.3814,0.3819,0.3815,0.3827,0.3837,0.3826,0.3847,0.3846,0.3817,0.3812,0.3807,0.3803,0.3869,0,0,0,0,0,0.3663,0.3667,0.3696,0.3687,0.3694,0.3722,0.3726,0.3744,0.376,0.3766,0.3784,0.3798,0.3806,0.381,0.3818,0.3808,0.3814,0.3802,0.3797,0.3792,0.379,0.3786,0.3781,0.3838,0.3838,0.3838,0,0,0.3641,0.366,0.366,0.3679,0.3692,0.3695,0.3726,0.3728,0.3731,0.3766,0.3766,0.3781,0.3799,0.3794,0.3792,0.3804,0.3776,0.379,0.3786,0.3786,0.3784,0.3778,0.3773,0.3836,0.3837,0.3837,0,0,0.3602,0.3617,0.3611,0.3625,0.3645,0.3664,0.3662,0.3688,0.3699,0.37,0.3727,0.3731,0.3743,0.3755,0.3763,0.3731,0.375,0.3733,0.3707,0.3703,0.3699,0.3695,0.3683,0.3679,0.3731,0.3731,0.3731,0,0.3571,0.3577,0.3606,0.3606,0.3614,0.3648,0.3643,0.3654,0.3676,0.368,0.3693,0.371,0.3724,0.3723,0.3715,0.3721,0.372,0.373,0.3697,0.3693,0.369,0.3679,0.3675,0.3729,0.3729,0.3729,0.373,0,0.3539,0.3543,0.3536,0.3557,0.3564,0.3562,0.359,0.3594,0.3613,0.363,0.3632,0.3651,0.3664,0.3666,0.3683,0.3667,0.3674,0.3692,0.3713,0.3682,0.3672,0.3669,0.3726,0.3726,0.3727,0.3728,0,0,0.3469,0.3508,0.3505,0.3515,0.3542,0.3545,0.3545,0.3559,0.3562,0.3577,0.3577,0.3588,0.3605,0.3614,0.3633,0.363,0.3604,0.3648,0.3649,0.3639,0.3587,0.3573,0.3567,0.3618,0.3617,0.3617,0.3586,0,0.3434,0.3436,0.3463,0.3457,0.3461,0.3495,0.3495,0.3511,0.3528,0.3535,0.3554,0.3561,0.3583,0.3589,0.3588,0.3607,0.3594,0.361,0.3618,0.3618,0.361,0.3562,0.3546,0.3516,0.3582,0.3582,0.3581,0,0.3392,0.3405,0.34,0.3428,0.3431,0.343,0.3445,0.3451,0.3471,0.3484,0.3495,0.3518,0.352,0.3543,0.3547,0.3557,0.3563,0.3573,0.3573,0.3572,0.3596,0.356,0.3507,0.3502,0.3576,0.3576,0.3576,0,0.3341,0.3358,0.3357,0.3365,0.3397,0.3396,0.341,0.3431,0.3438,0.3452,0.3457,0.347,0.3477,0.3488,0.3514,0.3528,0.3515,0.3539,0.3525,0.3525,0.3519,0.3519,0.3465,0.3525,0.3525,0.3525,0.3525,0,0.3297,0.3292,0.3334,0.3333,0.333,0.3362,0.3357,0.3374,0.3393,0.3396,0.3427,0.3429,0.3464,0.3471,0.3492,0.3492,0.3495,0.3506,0.3511,0.3502,0.35,0.3504,0.3506,0.3524,0.3524,0.3525,0.3525,0,0.3238,0.3266,0.3267,0.3299,0.3307,0.3303,0.333,0.3331,0.3351,0.3355,0.3358,0.339,0.34,0.3428,0.3444,0.3459,0.3452,0.3463,0.3445,0.3448,0.3432,0.3433,0.3377,0.3372,0.3437,0.3436,0.3436,0,0.3207,0.3204,0.3237,0.3241,0.3254,0.3261,0.3269,0.3302,0.3308,0.3332,0.333,0.3343,0.3354,0.3368,0.3393,0.3406,0.3417,0.3397,0.3419,0.341,0.3415,0.3414,0.3414,0.3391,0.339,0.3389,0.3389,0,0.3149,0.3164,0.3174,0.319,0.3199,0.3212,0.3228,0.323,0.3266,0.3273,0.3284,0.3293,0.3311,0.3323,0.3341,0.3355,0.3378,0.3382,0.338,0.3369,0.3358,0.3363,0.343,0.3383,0.3383,0.3384,0.3384,0.3384,0.3103,0.3102,0.3125,0.3136,0.3151,0.3166,0.3168,0.319,0.32,0.3217,0.3236,0.3245,0.3267,0.3293,0.3307,0.3314,0.3326,0.3322,0.3321,0.3319,0.3315,0.3359,0.3318,0.3318,0.3318,0.3318,0.3318,0,0.3046,0.3063,0.3073,0.3094,0.3103,0.3125,0.3144,0.315,0.3157,0.3176,0.3188,0.3201,0.3213,0.324,0.3255,0.3256,0.3267,0.3259,0.3258,0.3261,0.3303,0.3304,0.325,0.325,0.325,0.325,0.325,0.325,0.3017,0.3017,0.3035,0.3044,0.3061,0.307,0.3079,0.3093,0.3108,0.3122,0.3133,0.3151,0.3173,0.319,0.3203,0.3211,0.3214,0.3202,0.3213,0.3252,0.3258,0.3264,0.3265,0.3203,0.3203,0.317,0.317,0.317]},{"header":{"parameterUnit":"m.s-1","parameterCategory":1,"la1":30.2991,"la2":30.254,"lo1":-89.0895,"lo2":-89.0444,"dy":0.0017,"dx":0.0017,"nx":28,"ny":28,"refTime":"2024-09-02T03:00:00:Z","depth":0,"parameterNumber":3,"parameterNumberName":"V-component_of_WINDS"},"data":[0,0,0,0,0,0,0,0,0,0,0,0,0,0,0,0,0,0,0,0,0,0,0,0,0,0,0,0,0,0,0,0,0,0,0,0,0,0,0,0,0,0,0,0,0,0,0,0,0,0,0,0,0,0,0,0,0,0,-2.8236,-2.8237,0,-2.8353,-2.8354,-2.8356,-2.8345,-2.8343,-2.8341,-2.834,-2.8458,-2.8463,-2.8467,0,0,0,0,0,0,0,0,0,0,0,0,0,-2.8002,-2.8006,-2.8236,-2.8237,-2.8239,-2.8353,-2.8354,-2.8356,-2.8345,-2.8343,-2.8341,-2.8339,-2.8456,-2.8462,-2.8468,0,0,0,0,0,0,0,0,0,0,0,0,0,-2.811,-2.8008,-2.8236,-2.8247,-2.8249,-2.8352,-2.8354,-2.8356,-2.8346,-2.8343,-2.834,-2.8338,-2.8454,-2.8461,-2.8469,-2.8567,0,0,-2.8491,-2.8494,0,0,0,0,0,0,0,0,-2.8103,-2.8118,-2.8244,-2.8247,-2.8249,-2.8332,-2.8315,-2.8427,-2.8346,-2.8309,-2.8339,-2.8336,-2.8418,-2.8428,-2.8456,-2.8573,-2.8578,-2.8491,-2.8496,-2.8499,-2.8501,0,0,0,0,0,0,0,-2.8096,-2.8113,-2.8282,-2.8246,-2.8249,-2.8246,-2.8258,-2.8336,-2.8377,-2.8312,-2.8312,-2.8326,-2.8419,-2.8449,-2.8458,-2.858,-2.8491,-2.8498,-2.8502,-2.8505,-2.8783,-2.8786,0,0,0,0,0,0,-2.8086,-2.8107,-2.8278,-2.8286,-2.8168,-2.8253,-2.8266,-2.8308,-2.8376,-2.8384,-2.8328,-2.8325,-2.8438,-2.845,-2.8463,-2.8583,-2.8499,-2.8506,-2.851,-2.878,-2.8784,-2.8787,0,0,0,0,0,0,-2.8081,-2.8101,-2.8274,-2.8196,-2.8218,-2.8259,-2.8306,-2.8312,-2.8342,-2.8388,-2.8395,-2.8351,-2.8436,-2.8452,-2.8541,-2.8586,-2.8509,-2.8515,-2.8777,-2.8781,-2.8786,-2.8823,0,0,0,0,0,0,-2.8074,-2.81,-2.8138,-2.8197,-2.8222,-2.8351,-2.8309,-2.8316,-2.8354,-2.8351,-2.8412,-2.8419,-2.8435,-2.8531,-2.8549,-2.8595,-2.8521,-2.8773,-2.8779,-2.8784,-2.8818,-2.8828,-2.8837,0,0,0,0,0,-2.8066,-2.8143,-2.814,-2.8161,-2.8271,-2.8354,-2.8368,-2.8385,-2.8358,-2.8396,-2.8426,-2.8417,-2.8579,-2.854,-2.856,-2.8609,-2.877,-2.8777,-2.8784,-2.8814,-2.8826,-2.8837,0,0,0,0,0,0,-2.8088,-2.8151,-2.8148,-2.8247,-2.8295,-2.8352,-2.8401,-2.8398,-2.8454,-2.8449,-2.8468,-2.8481,-2.8571,-2.8599,-2.8555,-2.8708,-2.8671,-2.8682,-2.8687,-2.8699,-2.8709,-2.87,-2.8527,0,0,0,0,0,-2.8104,-2.8166,-2.8219,-2.8301,-2.8325,-2.8359,-2.8396,-2.8405,-2.8455,-2.8475,-2.8512,-2.856,-2.8622,-2.8662,-2.8721,-2.8822,-2.8835,-2.8866,-2.8876,-2.8883,-2.8893,-2.8948,-2.8962,-2.881,-2.881,-2.881,0,0,-2.8138,-2.8181,-2.8219,-2.8306,-2.8345,-2.8408,-2.8376,-2.8445,-2.8492,-2.8485,-2.8572,-2.86,-2.8656,-2.8751,-2.8795,-2.8777,-2.8938,-2.8892,-2.8898,-2.8903,-2.8957,-2.8971,-2.8984,-2.8815,-2.8814,-2.8813,0,0,-2.8233,-2.8272,-2.8345,-2.8384,-2.8443,-2.8465,-2.8482,-2.8539,-2.8558,-2.8645,-2.8642,-2.8698,-2.8804,-2.8844,-2.8878,-2.8989,-2.8982,-2.9007,-2.9058,-2.9111,-2.9123,-2.9134,-2.9173,-2.9187,-2.9017,-2.9017,-2.9017,0,-2.8268,-2.8365,-2.8382,-2.8452,-2.849,-2.8488,-2.8562,-2.8599,-2.8673,-2.87,-2.8679,-2.8812,-2.885,-2.8954,-2.8981,-2.9009,-2.9029,-2.9,-2.912,-2.9131,-2.9141,-2.9179,-2.9194,-2.9019,-2.9019,-2.9019,-2.9019,0,-2.8405,-2.8472,-2.8523,-2.8596,-2.864,-2.8712,-2.874,-2.8783,-2.8788,-2.8812,-2.8901,-2.8946,-2.9014,-2.904,-2.9046,-2.9145,-2.9133,-2.9116,-2.9079,-2.9158,-2.9194,-2.9209,-2.9023,-2.9022,-2.9021,-2.9021,0,0,-2.8516,-2.8598,-2.8617,-2.865,-2.8715,-2.8766,-2.8838,-2.8905,-2.8941,-2.8993,-2.9053,-2.9143,-2.9128,-2.9167,-2.9177,-2.9225,-2.9309,-2.9202,-2.9204,-2.922,-2.9422,-2.9433,-2.945,-2.9306,-2.9309,-2.9311,-2.9417,0,-2.8617,-2.8743,-2.8762,-2.8873,-2.8935,-2.8934,-2.8996,-2.9042,-2.9067,-2.9123,-2.9149,-2.9213,-2.9189,-2.9212,-2.9259,-2.9289,-2.935,-2.9282,-2.9361,-2.9364,-2.9347,-2.9469,-2.9481,-2.9579,-2.9431,-2.9433,-2.9435,0,-2.8751,-2.8808,-2.8925,-2.8982,-2.9009,-2.9064,-2.9128,-2.9181,-2.9234,-2.9248,-2.9292,-2.9297,-2.937,-2.933,-2.9431,-2.9384,-2.9418,-2.9438,-2.9442,-2.945,-2.9404,-2.9479,-2.9611,-2.9625,-2.9457,-2.9456,-2.9454,0,-2.882,-2.8925,-2.9009,-2.9038,-2.9106,-2.9145,-2.9175,-2.9225,-2.9265,-2.932,-2.9346,-2.9409,-2.9443,-2.9492,-2.9513,-2.9482,-2.9613,-2.9575,-2.9627,-2.9626,-2.9654,-2.9652,-2.9793,-2.9677,-2.9676,-2.9676,-2.9676,0,-2.8931,-2.9003,-2.9041,-2.9093,-2.9174,-2.9194,-2.9273,-2.9302,-2.9346,-2.9403,-2.9406,-2.946,-2.9485,-2.9542,-2.956,-2.9641,-2.9656,-2.967,-2.9673,-2.9669,-2.9668,-2.9691,-2.9685,-2.968,-2.9679,-2.9678,-2.9678,0,-2.9021,-2.905,-2.9141,-2.9199,-2.9215,-2.9272,-2.932,-2.937,-2.9395,-2.9467,-2.9485,-2.9523,-2.9591,-2.9617,-2.97,-2.9711,-2.9805,-2.9803,-2.9787,-2.9788,-2.9839,-2.9833,-2.9999,-3.0022,-2.9891,-2.9892,-2.9893,0,-2.9089,-2.9145,-2.9208,-2.9247,-2.9279,-2.9341,-2.9381,-2.9404,-2.9446,-2.951,-2.9552,-2.962,-2.9675,-2.9783,-2.9818,-2.9881,-2.988,-2.9934,-2.989,-2.9884,-2.9881,-2.9877,-2.9883,-2.9942,-2.9943,-2.9945,-2.9945,0,-2.9208,-2.9219,-2.9278,-2.9342,-2.939,-2.9441,-2.9491,-2.9522,-2.9552,-2.9599,-2.9669,-2.9712,-2.9796,-2.9863,-2.9928,-2.9959,-2.9957,-2.9959,-2.9975,-2.9971,-2.9959,-2.9966,-2.9809,-2.9955,-2.9954,-2.9953,-2.9953,-2.9953,-2.9289,-2.9338,-2.9391,-2.9456,-2.9496,-2.9542,-2.9592,-2.9623,-2.9682,-2.9753,-2.9762,-2.9837,-2.9888,-2.9975,-3.0009,-3.0067,-3.0053,-3.0075,-3.0081,-3.0086,-3.0089,-2.995,-3.0079,-3.0079,-3.0078,-3.0078,-3.0078,0,-2.9407,-2.9441,-2.9501,-2.957,-2.9622,-2.9617,-2.9672,-2.9715,-2.978,-2.9829,-2.9883,-2.9963,-3.0028,-3.0068,-3.0134,-3.0173,-3.0174,-3.0189,-3.0186,-3.0193,-3.0098,-3.0078,-3.0187,-3.0187,-3.0187,-3.0187,-3.0187,-3.0187,-2.9474,-2.9557,-2.9575,-2.9678,-2.9711,-2.9785,-2.9817,-2.986,-2.9898,-2.9987,-3.0042,-3.0068,-3.0113,-3.0182,-3.0241,-3.0252,-3.0275,-3.0292,-3.0301,-3.0211,-3.02,-3.0189,-3.017,-3.0297,-3.0297,-3.0391,-3.0392,-3.0393]}]]